Weather in Neringa

Lithuania     55°18′19″N   21°00′24″E
temp.,
°C
wind,
m/s
gust,
m/s
humid.,
%
clouds,
%
prec.,
mm/h
press.,
hPa
HPBL,
m
28 july, wed
wed2800:00+21wsw34855 0.0 1011162
03:00+21wsw67845 0.0 1011361
06:00+21sw558147 0.0 1010287
09:00+21sw4482100 0.2 1011197
12:00+21ssw337796 0.6 1011132
15:00+23w22715 0.6 101026
18:00+23n227151 0.0 100947
21:00+21nw668177 1.4 1009298
29 july, thu
thu2900:00+20wsw3483100 0.8 1009254
03:00+20w568414 0.8 1009468
06:00+21w78790 0.0 1008572
09:00+21sw79815 0.2 1008523
12:00+21wsw810795 0.4 1008643
15:00+21w71073100 0.8 1008872
18:00+21w457197 0.1 1008346
21:00+20w911685 0.6 10081091
30 july, fri
fri3000:00+21w8126097 0.0 10081393
03:00+20wsw1013626 0.6 10071463
06:00+20sw1115635 0.1 10061647
09:00+19wsw1316639 0.2 10061579
12:00+19wsw12156149 0.0 10061595
15:00+20wsw1215540 0.0 10061720
18:00+20w1114638 0.0 10051358
21:00+20w1417685 0.0 10041345
31 july, sat
sat3100:00+20w1314715 0.0 10041099
03:00+20w1112724 0.0 10051017
06:00+20w89679 0.0 1004885
09:00+19ssw7869100 0.0 1005407
12:00+21sse476487 0.0 1004326
15:00+20w997691 0.4 1003515
18:00+21wnw797450 0.4 1002557
21:00+21wsw1114691 0.6 10031454
1 august, sun
sun100:00+20wsw1216715 0.1 10031529
03:00+20wsw131471100 0.4 10041371
06:00+19wsw131479100 1.2 10041150
09:00+20w11137021 2.6 10051330
12:00+20w10107092 0.3 10061203
15:00+20w8971100 0.4 1007992
18:00+20wnw7869100 0.1 1007741
21:00+20w5568100 0.1 1007721